User: anonymous   Login
Location: Delettes
(50.6178°N, 2.2123°E)
Time: 06:55:22
(UTC+00:00)
Language:

STARLINK-74 - Orbit

View from above orbital plane
View from above orbital plane
View from above satellite
View from above satellite

Ground track
Ground track

The orbit data is extracted from the following two-line orbital elements,

1 44293U 19029BL  20157.25001157  .05183358  00000-0  14544+0 0  9999
2 44293  53.0067 265.5110 0003529  57.8339 325.2229 15.31723256 58316
Epoch (UTC): 05 June 2020 06:00:01
Eccentricity: 0.0003529
inclination: 53.0067°
perigee height: 468 km
apogee height: 473 km
right ascension of ascending node: 265.5110°
argument of perigee: 57.8339°
revolutions per day: 15.31723256
mean anomaly at epoch: 325.2229°
orbit number at epoch: 5831

The dashed part of the orbit path shows where the satellite is in the earth's shadow,  

DLR